Location: Lussas
(44.6119°N, 4.4726°E)
Time: 15:33:16
(UTC+00:00)

NOSS 3-4 (A) - Pass Details

Date: 26 November 2020
Orbit: 879 x 1333 km, 63.4° (Epoch: 25 January)

Event Time Altitude Azimuth Distance (km) Brightness Sun altitude
Exits shadow 06:07:16 - 250° (WSW) 3,471 5.9 -8.2°
Reaches altitude 10° 06:09:56 10° 260° (W) 2,567 5.2 -7.8°
Maximum altitude 06:15:15 33° 324° (NW) 1,518 4.1 -6.9°
Drops below altitude 10° 06:20:58 10° 27° (NNE) 2,766 5.9 -6.0°
Sets 06:24:00 0° 37° (NE) 3,790 6.8 -5.5°
